Location: Unspecified
(0.0000°N, 0.0000°E)
Time: 16:50:17
(UTC+02:00)

Delta 168 - Visible Passes

Search period start: 27 July 2017 00:00
Search period end: 06 August 2017 00:00
Orbit: 394 x 2064 km, 25.3° (Epoch: 26 July)

Date Brightness Start Highest point End Pass type
(mag) Time Alt. Az. Time Alt. Az. Time Alt. Az.
27 Jul 6.5 04:42:06 28° SE 04:42:06 28° SE 04:47:16 10° SE visible
27 Jul 6.1 06:32:07 27° SW 06:35:38 30° SSW 06:46:20 10° SE visible
28 Jul 6.8 04:32:12 21° SE 04:32:12 21° SE 04:35:38 10° SE visible
28 Jul 6.2 06:22:12 27° SSW 06:24:30 28° SSW 06:34:49 10° SE visible
29 Jul 7.1 04:22:11 15° SE 04:22:11 15° SE 04:23:58 10° SE visible
29 Jul 6.3 06:12:10 26° SSW 06:13:24 26° SSW 06:23:16 10° SE visible
30 Jul 7.3 04:12:05 10° SE 04:12:05 10° SE 04:12:16 10° SE visible
30 Jul 6.4 06:02:05 24° SSW 06:02:21 24° S 06:11:41 10° SE visible
31 Jul 6.5 05:51:55 22° S 05:51:55 22° S 06:00:04 10° SE visible
01 Aug 6.6 05:41:41 20° S 05:41:41 20° S 05:48:24 10° SE visible
01 Aug 6.8 07:34:27 10° SW 07:42:13 19° S 07:50:22 10° SE visible
02 Aug 6.7 05:31:26 17° S 05:31:26 17° S 05:36:44 10° SE visible
02 Aug 6.8 07:23:33 10° SSW 07:31:11 19° S 07:39:20 10° SE visible
03 Aug 6.8 05:21:08 15° SSE 05:21:08 15° SSE 05:25:01 10° SSE visible
03 Aug 6.8 07:12:39 10° SSW 07:20:10 19° S 07:28:18 10° SE visible
04 Aug 6.9 05:10:51 13° SSE 05:10:51 13° SSE 05:13:16 10° SSE visible
04 Aug 6.8 07:01:45 10° SSW 07:09:08 19° SSE 07:17:15 10° SE visible
05 Aug 7.0 05:00:33 11° SSE 05:00:33 11° SSE 05:01:28 10° SSE visible
05 Aug 6.7 06:50:52 10° SSW 06:58:05 19° SSE 07:06:11 10° SE visible
